Weather History for Kinloss, United Kingdom

Change the Weather History Date:

Wednesday, November 2, 2011

  Actual Average Record
Temperature  
Mean Temperature 47 °F -  
Max Temperature 57 °F 47 °F 62 °F (2007)
Min Temperature 37 °F 36 °F 28 °F (1998)
Degree Days  
Heating Degree Days 18    
Moisture  
Dew Point 42 °F    
Average Humidity 68    
Maximum Humidity 93    
Minimum Humidity 47    
Precipitation  
Precipitation 0.00 in 0.08 in - ()
Sea Level Pressure  
Sea Level Pressure 29.44 in    
Wind  
Wind Speed 8 mph ()    
Max Wind Speed 18 mph    
Max Gust Speed 32 mph    
Visibility 7.4 miles    
Events      
Averages and records for this station are not official NWS values.
T = Trace of Precipitation, MM = Missing Value Source: Averaged Metar Reports

Daily Weather History Graph

Daily Weather History Graph

Search for Another Location

Airport:

Trip Planner

Search our weather history database for the weather conditions in past years. The results will help you decide how hot, cold, wet, or windy it might be!

Date:

Astronomy

Nov. 02, 2011 Rise Set
Actual Time 7:28 AM GMT 4:26 PM GMT
Civil Twilight 6:46 AM GMT 5:08 PM GMT
Nautical Twilight 6:00 AM GMT 5:54 PM GMT
Astronomical Twilight 5:15 AM GMT 6:39 PM GMT
Moon 1:42 PM GMT (11/2) 11:01 PM GMT (11/2)
Length of Visible Light 10h 21m
Length of Day
8h 58m
Waxing Crescent, 48% of the Moon is Illuminated
Nov 2
Waxing Crescent
Nov 2
First Quarter
Nov 10
Full
Nov 18
Last Quarter
Nov 25
New

Hourly Weather History & Observations

Time (GMT) Temp. Windchill Dew Point Humidity Pressure Visibility Wind Dir Wind Speed Gust Speed Precip Events Conditions
12:50 AM 41.0 °F 35.8 °F 35.6 °F 81% 29.62 in 6.2 mi ESE 8.1 mph - N/A   Partly Cloudy
1:50 AM 41.0 °F 35.8 °F 35.6 °F 81% 29.59 in 6.2 mi ESE 8.1 mph - N/A   Unknown
2:50 AM 38 °F - 35 °F 83% 29.59 in 31 mi East 3.5 mph - -   Scattered Clouds
2:50 AM 37.4 °F 34.9 °F 35.6 °F 93% 29.59 in 6.2 mi East 3.5 mph - N/A   Partly Cloudy
4:50 AM 46.4 °F 44.3 °F 41.0 °F 81% 29.56 in 6.2 mi SSE 4.6 mph - N/A   Mostly Cloudy
5:50 AM 49 °F - 40 °F 61% 29.55 in 34 mi SSE 9.2 mph - -  
5:50 AM 50.0 °F - 39.2 °F 66% 29.53 in 6.2 mi SSE 9.2 mph - N/A   Mostly Cloudy
6:50 AM 50.0 °F - 41.0 °F 71% 29.50 in 6.2 mi SE 13.8 mph - N/A   Overcast
7:50 AM 50.0 °F - 41.0 °F 71% 29.50 in 6.2 mi SE 10.4 mph - N/A   Overcast
8:50 AM 51.8 °F - 41.0 °F 67% 29.47 in 6.2 mi SSE 9.2 mph - N/A   Mostly Cloudy
9:50 AM 53.6 °F - 41.0 °F 62% 29.47 in 6.2 mi South 6.9 mph - N/A   Scattered Clouds
10:50 AM 55.4 °F - 41.0 °F 58% 29.47 in 6.2 mi South 6.9 mph 18.4 mph N/A   Partly Cloudy
11:50 AM 56 °F - 42 °F 49% 29.47 in 28 mi SSE 9.2 mph - -   Mostly Cloudy
11:50 AM 55.4 °F - 42.8 °F 63% 29.44 in 6.2 mi SSE 9.2 mph - N/A   Mostly Cloudy
12:50 PM 55.4 °F - 42.8 °F 63% 29.44 in 6.2 mi South 10.4 mph 21.9 mph N/A   Scattered Clouds
1:50 PM 55.4 °F - 42.8 °F 63% 29.42 in 6.2 mi SSE 9.2 mph - N/A   Scattered Clouds
2:50 PM 56 °F - 42 °F 47% 29.43 in 28 mi SSW 6.9 mph - -   Scattered Clouds
2:50 PM 55.4 °F - 41.0 °F 58% 29.42 in 6.2 mi SSW 6.9 mph - N/A   Partly Cloudy
3:50 PM 55.4 °F - 42.8 °F 63% 29.39 in 6.2 mi SSE 8.1 mph - N/A   Partly Cloudy
4:50 PM 53.6 °F - 42.8 °F 67% 29.39 in 6.2 mi SE 12.7 mph - N/A   Scattered Clouds
5:50 PM 54 °F - 42 °F 55% 29.39 in 19 mi SE 16.1 mph - -   Mostly Cloudy
5:50 PM 53.6 °F - 42.8 °F 67% 29.39 in 6.2 mi SE 16.1 mph - N/A   Scattered Clouds
6:50 PM 53.6 °F - 42.8 °F 67% 29.36 in 6.2 mi SE 9.2 mph - N/A   Mostly Cloudy
7:50 PM 53.6 °F - 44.6 °F 72% 29.36 in 6.2 mi South 18.4 mph 32.2 mph N/A   Overcast
8:50 PM 54 °F - 45 °F 63% 29.34 in 14 mi SSE 17.3 mph - -   Overcast
8:50 PM 53.6 °F - 44.6 °F 72% 29.33 in 6.2 mi SSE 17.3 mph 28.8 mph N/A   Overcast
9:50 PM 55.4 °F - 46.4 °F 72% 29.30 in 6.2 mi SSE 17.3 mph 29.9 mph N/A   Mostly Cloudy
10:50 PM 55.4 °F - 46.4 °F 72% 29.30 in 6.2 mi SE 9.2 mph - N/A   Mostly Cloudy
11:50 PM 55 °F - 47 °F 66% 29.30 in 16 mi SE 10.4 mph - -   Scattered Clouds
11:50 PM 55.4 °F - 46.4 °F 72% 29.30 in 6.2 mi SE 10.4 mph - N/A   Mostly Cloudy